Location: North Runcton
(52.7000°N, 0.4333°E)
Time: 20:23:33
(UTC+00:00)

Cosmos 1605 Rocket - Pass Details

Date: 19 May 2025
Orbit: 943 x 1005 km, 82.9° (Epoch: 21 June)

Event Time Altitude Azimuth Distance (km) Brightness Sun altitude
Rises 23:22:44 0° 348° (NNW) 3,734 8.8 -17.0°
Reaches altitude 10° 23:25:17 10° 348° (NNW) 2,774 7.7 -17.0°
Maximum altitude 23:31:39 78° 264° (W) 1,011 4.0 -17.1°
Enters shadow 23:35:18 27° 181° (S) 1,791 4.8 -17.2°
